Location: Wiesbaden
(50.0830°N, 8.2500°E)
Time: 05:54:59
(UTC+01:00)

ISS - Pass Details

Date: 07 December 2019
Orbit: 411 x 421 km, 51.6° (Epoch: 15 December)

Event Time Altitude Azimuth Distance (km) Brightness Sun altitude
Rises 17:35:09 0° 286° (WNW) 2,358 0.9 -10.6°
Reaches altitude 10° 17:37:15 10° 285° (WNW) 1,496 -0.1 -10.9°
Maximum altitude 17:40:36 79° 199° (SSW) 430 -3.7 -11.4°
Enters shadow 17:43:44 12° 113° (ESE) 1,406 -1.5 -11.9°
